Location: Caracas
(10.5033°N, 66.8422°W)
Time: 15:31:48
(UTC-04:00)

Vanguard 2 Rocket - Visible Passes

Search period start: 17 February 2018 00:00
Search period end: 27 February 2018 00:00
Orbit: 555 x 3327 km, 32.9° (Epoch: 17 February)

Date Brightness Start Highest point End Pass type
(mag) Time Alt. Az. Time Alt. Az. Time Alt. Az.
17 Feb 10.5 02:05:39 26° NE 02:05:39 26° NE 02:14:43 10° ENE visible
17 Feb 10.1 04:11:26 30° NNW 04:20:24 41° NNE 04:36:23 10° E visible
17 Feb 9.5 06:21:10 10° NW 06:41:02 72° NNE 06:53:47 10° ESE visible
17 Feb 8.2 20:11:35 10° SSW 20:18:30 48° SE 20:21:04 41° E visible
17 Feb 9.6 22:23:58 10° WSW 22:26:54 25° W 22:26:54 25° W visible
18 Feb 11.0 01:09:21 14° NE 01:09:21 14° NE 01:11:30 10° NE visible
18 Feb 10.1 03:15:09 37° N 03:16:57 37° N 03:34:01 10° ENE visible
18 Feb 9.7 05:20:57 15° NW 05:38:54 59° NNE 05:53:31 10° ESE visible
18 Feb 8.6 19:13:52 10° S 19:19:14 27° SE 19:25:17 15° E visible
18 Feb 8.3 21:24:36 10° WSW 21:31:07 64° W 21:31:07 64° W visible
19 Feb10.800:13:07ENE00:13:07ENE23:36:57Wvisible
19 Feb 10.4 02:18:55 31° NNE 02:18:55 31° NNE 02:30:54 10° ENE visible
19 Feb 9.9 04:24:44 29° NW 04:36:09 50° NNE 04:52:24 10° E visible
19 Feb 7.7 20:25:45 10° SW 20:32:43 78° SE 20:35:21 55° ENE visible
19 Feb 10.0 22:39:25 10° W 22:41:12 18° W 22:41:12 18° W visible
20 Feb 10.8 01:22:45 18° NE 01:22:45 18° NE 01:27:16 10° ENE visible
20 Feb 10.0 03:28:33 39° N 03:32:59 42° NNE 03:50:23 10° E visible
20 Feb 9.5 05:34:22 13° NW 05:53:54 76° NNE 06:08:39 10° ESE visible
20 Feb 7.8 19:27:24 10° SSW 19:33:13 47° SE 19:39:37 20° ENE visible
20 Feb 8.8 21:39:41 10° W 21:45:27 45° WNW 21:45:27 45° WNW visible
21 Feb 10.2 02:32:26 36° NNE 02:32:26 36° NNE 02:47:25 10° ENE visible
21 Feb 9.7 04:38:16 28° NW 04:51:28 62° NNE 05:08:00 10° ESE visible
21 Feb 7.9 20:40:25 10° WSW 20:47:23 69° NNW 20:49:43 54° NNE visible
21 Feb 10.3 22:55:15 10° WNW 22:55:34 11° WNW 22:55:34 11° WNW visible
22 Feb 10.7 01:36:24 23° NE 01:36:24 23° NE 01:43:37 10° ENE visible
22 Feb 9.9 03:42:13 42° NNW 03:48:36 51° NNE 04:06:26 10° E visible
22 Feb 9.4 05:48:02 11° WNW 06:08:29 85° SW 06:23:18 10° SE visible
22 Feb 7.4 19:41:37 10° SW 19:47:30 82° SE 19:53:59 24° ENE visible
22 Feb 9.3 21:55:13 10° W 21:59:49 31° NW 21:59:49 31° NW visible
23 Feb 10.0 02:46:14 43° NNE 02:46:14 43° NNE 03:03:52 10° E visible
23 Feb 9.5 04:52:05 27° NW 05:06:21 78° NNE 05:23:05 10° ESE visible
23 Feb 7.5 18:43:18 10° SSW 18:48:13 46° SE 18:56:16 10° ENE visible
23 Feb 8.5 20:55:36 10° W 21:02:30 46° NNW 21:04:04 43° N visible
24 Feb 10.5 01:50:20 28° NE 01:50:20 28° NE 02:00:17 10° ENE visible
24 Feb 9.7 03:56:10 46° NNW 04:03:45 64° NNE 04:22:00 10° ESE visible
24 Feb 9.5 06:02:37 10° WNW 06:22:45 65° SW 06:37:30 10° SE visible
24 Feb 7.8 19:56:24 10° WSW 20:02:14 60° NNW 20:08:18 24° NE visible
24 Feb 9.7 22:11:07 10° WNW 22:14:08 21° NW 22:14:08 21° NW visible
25 Feb 11.0 00:54:29 12° ENE 00:54:29 12° ENE 00:55:53 10° ENE visible
25 Feb 9.8 03:00:20 52° NNE 03:00:55 52° NNE 03:19:58 10° E visible
25 Feb 9.5 05:06:10 26° WNW 05:20:51 83° SW 05:37:40 10° SE visible
25 Feb 7.0 18:57:35 10° SW 19:02:35 88° SSE 19:11:09 10° ENE visible
25 Feb 9.0 21:11:15 10° WNW 21:17:58 32° NNW 21:18:21 32° N visible
26 Feb 10.2 02:04:32 36° ENE 02:04:32 36° ENE 02:16:50 10° E visible
26 Feb 9.5 04:10:23 49° NW 04:18:31 80° NNE 04:37:02 10° ESE visible
26 Feb 9.8 06:18:00 10° WNW 06:36:52 47° SW 06:51:14 10° SSE visible
26 Feb 8.4 20:11:43 10° W 20:17:24 37° NNW 20:22:31 22° NNE visible
26 Feb 10.0 22:27:09 10° NW 22:28:21 14° NW 22:28:21 14° NW visible
